"Time","Temp","Dewpoint","Humidity","Pressure","Direction","Speed","Gust","Precip","PrecipRate"
"00:04:56","52.9","42.6","68","29.98","340","1.7","3","0.00","0.00"
"00:09:58","53","42.4","67.2","29.98","348","2.3","7","0.00","0.00"
"00:14:58","53.1","42.5","67.2","29.98","333","2.8","11.5","0.00","0.00"
"00:19:57","53.3","42.5","66.7","29.98","344","2.5","9.2","0.00","0.00"
"00:24:57","53.4","41.9","65","29.98","338","3","5","0.00","0.00"
"00:29:56","53.4","41.3","63.5","30.00","315","3.2","11","0.00","0.00"
"00:34:56","53.4","40.7","62.2","30.00","330","2","5.8","0.00","0.00"
"00:39:57","53.2","40","60.8","30.00","331","2.2","7","0.00","0.00"
"00:44:56","53","39.5","60","30.01","342","2.6","5","0.00","0.00"
"00:49:59","52.8","39.4","60.2","30.01","320","2.4","6","0.00","0.00"
"00:54:58","52.7","39.8","61.5","30.01","324","2.2","6","0.00","0.00"
"00:59:58","52.5","39.6","61.5","30.01","310","2.7","7","0.00","0.00"
"01:04:57","52.4","39.7","61.8","30.01","347","3.3","11.5","0.00","0.00"
"01:09:57","52.3","39.9","62.5","30.01","340","2.9","8","0.00","0.00"
"01:14:58","52.1","39.5","62","30.03","350","4.3","15","0.00","0.00"
"01:19:57","51.8","39","61.5","30.03","319","4.4","7","0.00","0.00"
"01:24:57","51.5","38","59.8","30.03","329","4.9","14","0.00","0.00"
"01:29:56","51.4","37.2","58.4","30.03","332","4.8","11.5","0.00","0.00"
"01:34:56","51.2","36.7","57.5","30.03","302","4","9.2","0.00","0.00"
"01:39:57","50.9","36.6","57.9","30.03","329","3.4","12","0.00","0.00"
"01:44:57","50.6","36.6","58.5","30.04","311","2.3","10","0.00","0.00"
"01:49:57","50.2","35.2","56.3","30.04","310","5.4","13","0.00","0.00"
"01:54:56","49.8","34","54.4","30.04","318","6","18.4","0.00","0.00"
"01:59:59","49.5","33.4","53.9","30.04","323","4.5","11.5","0.00","0.00"
"02:04:58","49.1","33.3","54.2","30.04","313","4.6","10.4","0.00","0.00"
"02:09:58","48.8","33.1","54.6","30.04","326","4.4","10.4","0.00","0.00"
"02:14:56","48.5","32.8","54.5","30.05","312","4.7","11","0.00","0.00"
"02:19:59","48.3","32.9","55.3","30.05","328","5.1","11.5","0.00","0.00"
"02:24:56","48","33","56","30.05","327","4.1","9.2","0.00","0.00"
"02:29:59","47.7","33","56.5","30.06","324","4.9","11.5","0.00","0.00"
"02:34:58","47.6","33.2","57.1","30.06","306","3.3","9.2","0.00","0.00"
"02:39:56","47.3","33.1","57.6","30.06","309","3.9","7","0.00","0.00"
"02:44:56","47","33.1","58.2","30.06","288","4.4","19","0.00","0.00"
"02:49:59","46.9","32.9","58","30.05","293","4.6","13","0.00","0.00"
"02:54:58","46.8","32.8","58","30.05","281","3.9","14","0.00","0.00"
"02:59:57","46.6","32.7","58.3","30.05","302","4.7","12","0.00","0.00"
"03:04:59","46.5","32.6","58.4","30.05","316","5.5","14","0.00","0.00"
"03:09:56","46.5","32.6","58.2","30.05","305","5.6","13.8","0.00","0.00"
"03:14:57","46.3","32.7","59","30.06","335","3.7","13","0.00","0.00"
"03:19:56","46.1","32.7","59.1","30.06","296","3.7","13","0.00","0.00"
"03:24:56","46","32.5","59.1","30.06","329","3.8","12.7","0.00","0.00"
"03:29:59","45.9","32.6","59.5","30.06","301","4.2","13","0.00","0.00"
"03:34:59","45.9","32.6","59.6","30.06","324","4","14","0.00","0.00"
"03:39:57","45.8","32.7","60","30.06","343","2.6","6","0.00","0.00"
"03:44:56","45.6","32.6","60.3","30.07","340","3.6","9.2","0.00","0.00"
"03:49:56","45.5","32.6","60.6","30.07","336","2.5","7","0.00","0.00"
"03:54:59","45.2","32.5","61","30.07","330","2.1","6","0.00","0.00"
"03:59:59","45","32.7","61.8","30.08","293","1.3","6","0.00","0.00"
"04:04:58","44.8","32.6","62","30.08","307","2.5","9","0.00","0.00"
"04:09:59","44.7","32.9","63","30.08","331","1.2","5","0.00","0.00"
"04:14:56","44.4","32.7","63.3","30.08","321","1.4","5","0.00","0.00"
"04:19:57","44.2","32.8","63.8","30.08","309","1.9","6","0.00","0.00"
"04:24:56","44","32.8","64.5","30.08","323","2.4","5","0.00","0.00"
"04:29:56","43.9","32.9","64.9","30.08","9","2.4","6","0.00","0.00"
"04:34:59","43.7","33.1","66","30.08","315","1.7","5.8","0.00","0.00"
"04:39:58","43.6","32.8","65.4","30.08","308","1.1","4","0.00","0.00"
"04:44:58","43.5","32.9","65.9","30.09","330","2.6","5","0.00","0.00"
"04:49:57","43.5","32.8","65.9","30.09","289","1.9","6","0.00","0.00"
"04:54:58","43.4","32.8","66","30.09","282","1.6","6","0.00","0.00"
"04:59:59","43.3","32.8","66.4","30.09","289","1.3","5","0.00","0.00"
"05:04:59","43","32.5","66.2","30.09","239","0.7","3.5","0.00","0.00"
"05:09:56","42.8","32.8","67.4","30.09","277","1.1","4","0.00","0.00"
"05:14:58","42.6","32.7","67.7","30.10","306","0.6","4","0.00","0.00"
"05:19:58","42.4","32.5","67.9","30.10","258","0.8","4","0.00","0.00"
"05:24:56","42.2","32.5","68.3","30.10","259","0.9","3.5","0.00","0.00"
"05:29:56","42.1","32.7","69.2","30.11","265","1.4","5","0.00","0.00"
"05:34:56","42.1","32.5","68.5","30.11","279","1.6","4","0.00","0.00"
"05:39:58","42.3","32.5","68","30.11","271","1.1","3.5","0.00","0.00"
"05:44:58","42.3","32.5","68","30.11","236","1.7","4","0.00","0.00"
"05:49:58","42.5","32.7","68","30.11","283","0.8","3","0.00","0.00"
"05:54:58","42.5","32.7","68","30.11","288","0.7","3","0.00","0.00"
"05:59:59","42.4","32.6","68","30.11","349","1.3","7","0.00","0.00"
"06:04:58","42.4","32.6","68.3","30.11","347","0.5","2.3","0.00","0.00"
"06:09:57","42.1","32.7","69","30.11","349","0.9","2.3","0.00","0.00"
"06:14:56","42","32.6","69","30.11","327","1.3","3.5","0.00","0.00"
"06:19:56","42","32.6","69","30.11","298","1.1","4","0.00","0.00"
"06:24:56","42","32.6","69","30.11","322","0.8","3.5","0.00","0.00"
"06:29:56","42","32.6","69","30.12","322","0.5","2.3","0.00","0.00"
"06:34:56","41.9","32.6","69.3","30.12","320","0.8","4","0.00","0.00"
"06:39:59","41.8","32.7","69.9","30.12","336","1","3.5","0.00","0.00"
"06:44:59","41.7","32.8","70.5","30.13","336","0.8","3.5","0.00","0.00"
"06:49:56","41.7","32.7","70.2","30.13","326","0.4","3","0.00","0.00"
"06:54:59","41.6","32.9","71","30.13","311","0.6","4","0.00","0.00"
"06:59:58","41.7","33","71","30.14","305","0.2","2.3","0.00","0.00"
"07:04:57","41.8","33.1","71","30.14","305","0.4","2.3","0.00","0.00"
"07:09:59","42.2","33.5","71","30.14","305","0.3","4","0.00","0.00"
"07:14:58","42.7","33.7","70.1","30.14","256","1.1","3.5","0.00","0.00"
"07:19:56","43.3","34","69.5","30.14","213","0.6","2.3","0.00","0.00"
"07:24:58","43.8","34.4","69.3","30.14","255","1","3","0.00","0.00"
"07:29:58","44.1","34.6","69","30.15","250","1.5","4","0.00","0.00"
"07:34:58","44.3","34.6","68.5","30.15","278","2","5","0.00","0.00"
"07:39:59","44.5","34.7","68.2","30.15","314","2.3","5","0.00","0.00"
"07:44:57","44.9","34.6","67.2","30.16","275","2.4","6","0.00","0.00"
"07:49:59","45.2","34.7","66.4","30.16","285","3","10.4","0.00","0.00"
"07:54:57","45.6","35.2","66.6","30.16","287","2.7","6","0.00","0.00"
"07:59:59","46","35","65.3","30.16","292","4.1","11","0.00","0.00"
"08:04:57","46.2","34.8","64.3","30.16","311","4.6","8.1","0.00","0.00"
"08:09:57","46.3","34.6","63.5","30.16","308","4.8","11.5","0.00","0.00"
"08:14:58","46.6","34.9","63.5","30.16","324","4.9","10.4","0.00","0.00"
"08:19:56","46.8","34.8","62.7","30.16","321","5","12","0.00","0.00"
"08:24:56","47.2","35.3","63.4","30.16","301","3.8","10.4","0.00","0.00"
"08:29:58","47.5","34.7","61","30.17","305","4","10.4","0.00","0.00"
"08:34:56","47.8","34.5","59.7","30.17","296","5.3","11","0.00","0.00"
"08:39:57","48","33.7","57.4","30.17","318","4.8","15","0.00","0.00"
"08:44:56","48.3","33.4","56.3","30.17","302","5.6","12.7","0.00","0.00"
"08:49:58","48.6","33.5","55.9","30.17","313","5.5","16.1","0.00","0.00"
"08:54:57","48.7","32.8","54","30.17","334","6.1","14","0.00","0.00"
"08:59:55","48.9","33.3","54.8","30.17","314","4.4","14","0.00","0.00"
"09:04:58","49.4","33.2","53.6","30.17","307","5","11.5","0.00","0.00"
"09:09:58","49.5","32.6","52","30.17","323","5.4","10.4","0.00","0.00"
"09:14:59","49.6","32.5","51.7","30.17","323","5.9","13","0.00","0.00"
"09:19:58","49.8","32.2","50.6","30.17","329","4.9","11.5","0.00","0.00"
"09:24:56","50.2","32.8","51","30.17","316","4.7","11.5","0.00","0.00"
"09:29:59","50.7","32.6","49.8","30.17","340","4.9","13","0.00","0.00"
"09:34:57","51","32.4","49","30.17","313","4.4","13","0.00","0.00"
"09:39:57","51.2","31.8","47.3","30.17","322","5.2","12.7","0.00","0.00"
"09:44:59","51.3","32.1","47.8","30.17","308","4","11.5","0.00","0.00"
"09:49:57","51.4","32","47.3","30.17","289","3.8","9","0.00","0.00"
"09:54:59","51.7","32","46.8","30.17","325","5.2","12","0.00","0.00"
"09:59:57","52.3","32.8","47.5","30.17","330","4.5","14","0.00","0.00"
"10:04:58","52.7","32.9","46.7","30.17","339","5","13.8","0.00","0.00"
"10:09:58","53.1","32.1","44.7","30.17","340","3.6","10","0.00","0.00"
"10:14:59","53.4","31.3","42.8","30.17","326","5.9","12","0.00","0.00"
"10:19:57","53.5","29.4","39.4","30.17","348","5.9","14","0.00","0.00"
"10:24:59","53.2","29.8","40.5","30.17","334","5.3","13.8","0.00","0.00"
"10:29:57","53.6","29.4","39.5","30.18","334","6.3","13","0.00","0.00"
"10:34:59","53.8","29.2","38.8","30.18","323","5.7","13","0.00","0.00"
"10:39:56","53.9","28.9","38","30.18","332","6","13","0.00","0.00"
"10:44:59","54.1","29.3","38.6","30.18","329","5.7","18","0.00","0.00"
"10:49:59","54.4","29.3","38.1","30.18","333","6.4","13","0.00","0.00"
"10:54:58","54.7","29.9","38.7","30.18","343","4","11","0.00","0.00"
"10:59:57","55.1","30.3","38.6","30.18","332","5.1","17","0.00","0.00"
"11:04:56","55.4","30.2","38","30.18","338","5.6","16.1","0.00","0.00"
"11:09:56","55.7","32.4","41.2","30.18","301","3.8","11.5","0.00","0.00"
"11:14:58","56","30.9","38.3","30.18","319","5.3","11","0.00","0.00"
"11:19:57","55.9","30.1","37.2","30.18","324","3.9","11.5","0.00","0.00"
"11:24:57","56.1","30.6","37.8","30.18","328","4.4","11.5","0.00","0.00"
"11:29:56","56.4","30.1","36.5","30.18","346","4.5","13","0.00","0.00"
"11:34:59","56.8","30.8","37.1","30.18","328","3.7","11.5","0.00","0.00"
"11:39:57","56.9","30.5","36.6","30.18","329","4.1","9.2","0.00","0.00"
"11:44:56","57","29.9","35.3","30.18","316","5.5","12.7","0.00","0.00"
"11:49:59","57","29.6","35","30.18","336","5.2","11.5","0.00","0.00"
"11:54:58","57.3","30.5","36","30.18","336","5.6","11.5","0.00","0.00"
"11:59:58","57.8","31.6","37","30.18","332","4.8","12","0.00","0.00"
"12:04:56","58.1","30.1","34.4","30.17","349","6.4","14","0.00","0.00"
"12:09:56","57.9","28.7","32.7","30.17","324","6.2","13","0.00","0.00"
"12:14:58","57.7","28.9","33.2","30.17","298","5.1","11.5","0.00","0.00"
"12:19:57","58","30.6","35.2","30.17","302","3","10","0.00","0.00"
"12:24:56","58.8","32.6","37","30.17","343","3.5","14","0.00","0.00"
"12:29:56","59.2","29.3","32.1","30.17","328","5","11.5","0.00","0.00"
"12:34:59","59.1","29.9","33","30.17","326","4.1","10.4","0.00","0.00"
"12:39:56","59.3","30","32.7","30.17","344","4.3","10.4","0.00","0.00"
"12:44:59","59.6","32.1","35.4","30.17","318","3.7","11.5","0.00","0.00"
"12:49:58","60","31.7","34.3","30.16","333","4","10.4","0.00","0.00"
"12:54:57","60.2","34.1","37.6","30.16","248","3.6","9.2","0.00","0.00"
"12:59:56","60.5","32.2","34.5","30.16","286","2.9","11","0.00","0.00"
"13:04:58","60.5","34.9","38.3","30.15","243","4.2","9.2","0.00","0.00"
"13:09:58","60.7","35","38.3","30.15","279","3.5","9.2","0.00","0.00"
"13:14:56","61","37","40.8","30.15","237","4.4","11.5","0.00","0.00"
"13:19:59","61.3","34.5","36.7","30.15","320","3.4","10.4","0.00","0.00"
"13:24:58","61.4","35.6","38.1","30.15","302","2.9","9.2","0.00","0.00"
"13:29:57","62","36.3","38.6","30.15","279","3.2","10.4","0.00","0.00"
"13:34:56","62.2","34.9","36.1","30.15","277","2.8","10.4","0.00","0.00"
"13:39:57","62.3","36.4","38.3","30.15","289","3.4","10","0.00","0.00"
"13:44:59","62.7","36.7","38.1","30.15","284","3.3","10.4","0.00","0.00"
"13:49:58","63.1","35.7","36","30.14","342","3.2","9.2","0.00","0.00"
"13:54:56","63.4","35","34.8","30.14","2","3.3","13","0.00","0.00"
"13:59:59","63.6","34.3","33.5","30.14","354","4","14","0.00","0.00"
"14:04:57","63.7","32.7","31.3","30.14","328","5.6","12","0.00","0.00"
"14:09:57","63.7","33.1","31.9","30.14","326","5","11.5","0.00","0.00"
"14:14:57","64","34.9","33.8","30.14","282","3.4","9.2","0.00","0.00"
"14:19:59","64.5","33.9","32.1","30.14","286","3.8","9.2","0.00","0.00"
"14:24:58","64.8","35.2","33.4","30.14","283","3.3","9.2","0.00","0.00"
"14:29:57","64.8","34.2","32.1","30.14","300","4","10.4","0.00","0.00"
"14:34:59","65.3","37.1","35.5","30.13","279","3.1","11","0.00","0.00"
"14:39:56","65.5","35.8","33.3","30.13","270","4.2","11.5","0.00","0.00"
"14:44:58","65.6","37.4","35.3","30.13","266","4.1","10.4","0.00","0.00"
"14:49:57","66.1","34.3","30.8","30.13","318","4.8","11.5","0.00","0.00"
"14:54:59","65.7","34","30.8","30.13","281","3.6","8.1","0.00","0.00"
"14:59:58","66.1","37.5","34.9","30.13","249","2.7","6","0.00","0.00"
"15:04:56","66.7","37.4","34","30.12","300","2.8","6","0.00","0.00"
"15:09:56","66.8","35","30.8","30.12","297","3.2","10","0.00","0.00"
"15:14:57","66.8","35.4","31.3","30.12","348","4","10.4","0.00","0.00"
"15:19:56","66.9","34.5","30.2","30.12","349","5.3","14","0.00","0.00"
"15:24:59","66.8","34.7","30.5","30.12","333","4.3","12","0.00","0.00"
"15:29:57","67","34.8","30.3","30.12","347","4.7","13","0.00","0.00"
"15:34:56","67.3","35","30.3","30.12","331","4.9","13","0.00","0.00"
"15:39:58","67.6","36.2","31.5","30.12","298","3.5","11.5","0.00","0.00"
"15:44:56","67.9","36.8","31.9","30.12","272","3.5","10.4","0.00","0.00"
"15:49:59","67.8","34.6","29.3","30.11","330","5","12","0.00","0.00"
"15:54:58","67.8","36.2","31.3","30.11","322","2.8","6","0.00","0.00"
"15:59:57","67.9","36.3","31.2","30.11","295","2.6","6","0.00","0.00"
"16:04:59","68.4","34.7","28.9","30.10","341","5.2","11.5","0.00","0.00"
"16:09:59","68.4","35.5","29.7","30.10","316","3.9","10","0.00","0.00"
"16:14:58","68.5","35.2","29.4","30.10","287","3.8","10.4","0.00","0.00"
"16:19:56","68.3","35","29.2","30.10","315","4.6","12","0.00","0.00"
"16:24:59","68.6","35.5","29.6","30.10","307","3.4","9.2","0.00","0.00"
"16:29:58","68.8","36.4","30.4","30.10","282","3","7","0.00","0.00"
"16:34:57","69.1","36.6","30.4","30.09","235","4","7","0.00","0.00"
"16:39:58","69.4","37.8","31.4","30.09","206","2.3","4","0.00","0.00"
"16:44:57","69.8","37.5","30.8","30.09","349","2.8","7","0.00","0.00"
"16:49:56","69.8","36.1","29","30.09","337","4","10.4","0.00","0.00"
"16:54:58","69.7","34.6","27.5","30.09","336","4.8","10.4","0.00","0.00"
"16:59:57","69.6","36.1","29.3","30.09","320","2.9","7","0.00","0.00"
"17:04:59","70.1","36.3","29.1","30.09","321","2.8","9.2","0.00","0.00"
"17:09:56","70.3","35.5","27.9","30.09","350","3.3","9.2","0.00","0.00"
"17:14:57","70.1","34.8","27.3","30.09","348","3.1","9.2","0.00","0.00"
"17:19:57","70","35.6","28.4","30.08","328","3.5","9.2","0.00","0.00"
"17:24:57","69.9","35.5","28.3","30.08","320","3.2","6","0.00","0.00"
"17:29:59","70.1","38.4","31.6","30.08","278","3","10","0.00","0.00"
"17:34:59","70.2","35.7","28.3","30.08","294","2.9","12","0.00","0.00"
"17:39:56","70.1","37.1","29.8","30.08","320","2.1","5","0.00","0.00"
"17:44:59","70.4","36.9","29.3","30.08","215","2","6","0.00","0.00"
"17:49:58","70.6","36.8","29.1","30.08","337","2.6","7","0.00","0.00"
"17:54:57","70.5","35","27.2","30.08","338","4.3","8.1","0.00","0.00"
"17:59:56","70.2","35.7","28.2","30.08","337","4.1","10.4","0.00","0.00"
"18:04:58","70.1","35.3","27.9","30.08","339","3.7","10","0.00","0.00"
"18:09:55","70.1","36.4","29.1","30.08","354","2.7","10.4","0.00","0.00"
"18:14:56","70.1","35.7","28.3","30.08","329","2.4","4.6","0.00","0.00"
"18:19:59","70.2","35.5","27.9","30.08","334","3.7","10.4","0.00","0.00"
"18:24:58","70.1","35.7","28.3","30.08","324","2.1","5","0.00","0.00"
"18:29:57","70.2","36.6","29.2","30.08","260","0","0","0.00","0.00"
"18:34:56","70.3","36.4","28.9","30.08","259","1.3","4","0.00","0.00"
"18:39:57","70.1","35","27.5","30.08","285","1.9","4","0.00","0.00"
"18:44:59","70.1","35.6","28.2","30.08","319","1.7","4","0.00","0.00"
"18:49:58","69.6","35.1","28.1","30.08","313","2.3","4","0.00","0.00"
"18:54:56","69","36","29.6","30.08","343","2.3","6","0.00","0.00"
"18:59:59","68.5","35.3","29.4","30.08","337","1.4","4","0.00","0.00"
"19:04:58","68.2","36","30.6","30.08","321","0.6","2.3","0.00","0.00"
"19:09:59","67.8","35.4","30.3","30.08","321","0.6","2.3","0.00","0.00"
"19:14:57","67.5","35.4","30.6","30.08","321","0.8","3","0.00","0.00"
"19:19:57","67.1","35","30.6","30.07","321","0.4","2.3","0.00","0.00"
"19:24:57","66.9","39.1","36","30.07","321","0.2","1.2","0.00","0.00"
"19:29:56","66.4","39.8","37.6","30.08","321","0.3","1.2","0.00","0.00"
"19:34:56","65.7","39.8","38.5","30.08","321","0.2","1.2","0.00","0.00"
"19:39:58","64.9","38.8","38.2","30.08","321","0","0","0.00","0.00"
"19:44:58","64.2","39.4","40","30.08","321","0","0","0.00","0.00"
"19:49:57","63.6","39.7","41.3","30.08","321","0","0","0.00","0.00"
"19:54:57","63","39.5","42","30.08","321","0.2","2","0.00","0.00"
"19:59:58","62.3","41.2","46","30.09","321","0.2","1.2","0.00","0.00"
"20:04:58","61.6","42","48.6","30.09","321","0","0","0.00","0.00"
"20:09:55","60.9","41.2","48.2","30.09","321","0","1.2","0.00","0.00"
"20:14:57","60.3","40.1","47.2","30.09","321","0.2","1.2","0.00","0.00"
"20:19:57","59.7","41.9","51.8","30.09","321","0","0","0.00","0.00"
"20:24:57","59.2","42.8","54.5","30.09","321","0","0","0.00","0.00"
"20:29:56","58.6","43.3","56.9","30.10","321","0.1","1.2","0.00","0.00"
"20:34:56","57.9","42.9","57.4","30.10","321","0.2","1.2","0.00","0.00"
"20:39:58","57.2","43.5","60","30.10","319","0.8","3.5","0.00","0.00"
"20:44:58","56.5","42.8","60.2","30.11","319","0.2","1.2","0.00","0.00"
"20:49:57","56","43.1","61.8","30.11","319","0.1","1.2","0.00","0.00"
"20:54:57","55.7","43.8","64.3","30.11","319","0.2","1.2","0.00","0.00"
"20:59:56","55.4","43.8","65","30.12","319","0.2","1.2","0.00","0.00"
"21:04:59","54.9","44.2","67.2","30.12","319","0","1.2","0.00","0.00"
"21:09:56","54.5","44.6","69.4","30.12","319","0","0","0.00","0.00"
"21:14:57","54.1","44.9","71.1","30.12","319","0","0","0.00","0.00"
"21:19:56","53.8","45","71.9","30.12","319","0","0","0.00","0.00"
"21:24:56","53.5","43.9","70","30.12","319","0","0","0.00","0.00"
"21:29:56","53.1","43.7","70.3","30.12","319","0","0","0.00","0.00"
"21:34:56","52.7","43.7","71.6","30.12","319","0","0","0.00","0.00"
"21:39:58","52.3","43.4","71.6","30.12","319","0","0","0.00","0.00"
"21:44:58","52","43.7","73.2","30.12","319","0","0","0.00","0.00"
"21:49:58","51.7","44","75","30.12","319","0","0","0.00","0.00"
"21:54:57","51.4","44.1","76","30.12","319","0","0","0.00","0.00"
"21:59:57","51.1","43.4","74.9","30.12","319","0","0","0.00","0.00"
"22:04:56","50.9","43.4","75.3","30.12","319","0","0","0.00","0.00"
"22:09:57","50.7","42.7","74","30.12","319","0","0","0.00","0.00"
"22:14:59","50.5","42.5","74","30.12","319","0","0","0.00","0.00"
"22:19:59","50.2","42.2","74","30.12","319","0","0","0.00","0.00"
"22:24:58","50","43","76.8","30.12","319","0.2","2.3","0.00","0.00"
"22:29:58","49.8","43.2","77.9","30.12","319","0","1.2","0.00","0.00"
"22:34:58","49.7","42.7","76.8","30.11","319","0","0","0.00","0.00"
"22:39:56","49.5","43.1","78.3","30.11","319","0","0","0.00","0.00"
"22:44:59","49.1","43.1","79.7","30.11","319","0","0","0.00","0.00"
"22:49:58","48.8","43.4","81.5","30.11","319","0","0","0.00","0.00"
"22:54:58","48.5","43.6","83","30.11","319","0","0","0.00","0.00"
"22:59:57","48.2","43.4","83.2","30.12","319","0","0","0.00","0.00"
"23:04:57","48","43.5","84.3","30.12","319","0","0","0.00","0.00"
"23:09:58","47.9","43.4","84.2","30.12","319","0","0","0.00","0.00"
"23:14:55","47.7","43.2","84.2","30.12","319","0","0","0.00","0.00"
"23:19:58","47.6","43.1","84.1","30.11","319","0","0","0.00","0.00"
"23:24:59","47.5","42.8","83.7","30.11","319","0","0","0.00","0.00"
"23:29:58","47.4","42.8","84","30.11","319","0","0","0.00","0.00"
"23:34:59","47.3","42.6","83.8","30.11","319","0","0","0.00","0.00"
"23:39:57","47.2","42.3","83.2","30.11","319","0","0","0.00","0.00"
"23:44:56","47","42.3","83.7","30.11","319","0","0","0.00","0.00"
"23:49:56","46.9","42.1","83.3","30.11","319","0","0","0.00","0.00"
"23:54:59","46.6","42","84","30.11","319","0","0","0.00","0.00"
"23:59:59","46.4","42.1","85","30.11","319","0","0","0.00","0.00"
